This demonstration page uses our WeatherBlox Daily Observations layout. Learn more.

Left ArrowRight Arrow

Hourly Observations for February 27, 2020

Temp ( °F °C ) Dew Point ( °F °C ) Humidity (%) Winds ( mph kmh ) Pressure ( in mb ) Visibility ( mi km ) Precip ( " mm )
12:56 am 00:56 Clear 28 -2.2 21 -6.1 75 75 W 7 11 30.17 1022 10 16 0.00 0.00
1:56 am 01:56 Cloudy 28 -2.2 21 -6.1 75 75 WSW 6 9 30.15 1021 10 16 0.00 0.00
2:56 am 02:56 Partly Cloudy 27 -2.8 21 -6.1 78 78 WNW 7 11 30.14 1021 10 16 0.00 0.00
3:56 am 03:56 Clear 25 -3.9 21 -6.1 85 85 W 5 7 30.13 1020 10 16 0.00 0.00
4:56 am 04:56 Clear 26 -3.3 22 -5.6 84 84 W 8 13 30.12 1020 10 16 0.00 0.00
5:56 am 05:56 Clear 26 -3.3 21 -6.1 81 81 NW 8 13 30.12 1020 10 16 0.00 0.00
6:56 am 06:56 Clear 24 -4.4 21 -6.1 88 88 WNW 6 9 30.14 1021 10 16 0.00 0.00
7:56 am 07:56 Sunny 27 -2.8 23 -5 85 85 NW 6 9 30.15 1021 10 16 0.00 0.00
8:56 am 08:56 Sunny 32 0 25 -3.9 75 75 NW 12 19 30.17 1022 10 16 0.00 0.00
9:56 am 09:56 Mostly Sunny 38 3.3 26 -3.3 62 62 NNW 10 17 30.16 1021 10 16 0.00 0.00
10:56 am 10:56 Cloudy 37 2.8 27 -2.8 67 67 NNW 9 15 30.18 1022 10 16 0.00 0.00
11:31 am 11:31 Cloudy with Light Snow 36 2 30 -1 81 81 NNW 9 15 30.21 1023 3 4 0.00 0.00
11:38 am 11:38 Cloudy with Light Snow 34 1 32 0 93 93 NNW 8 13 30.22 1023 4 6 0.00 0.00
11:56 am 11:56 Cloudy with Light Snow 34 1.1 32 0 92 92 NNW 8 13 30.21 1023 3 5 0.00 0.00
12:04 pm 12:04 Cloudy with Light Snow 34 1 32 0 93 93 NNW 8 13 30.24 1024 2 3 0.00 0.00
12:25 pm 12:25 Cloudy with Light Snow 34 1 32 0 93 93 NW 7 11 30.24 1024 3 4 0.00 0.00
12:30 pm 12:30 Cloudy with Light Snow 34 1 32 0 93 93 NW 7 11 30.24 1024 3 5 0.01 0.25
12:39 pm 12:39 Cloudy with Light Snow 34 1 32 0 93 93 NW 7 11 30.24 1024 2 3 0.00 0.00
12:56 pm 12:56 Cloudy with Light Snow 33 0.6 32 0 96 96 WNW 9 15 30.22 1023 2 2 0.02 0.51
1:06 pm 13:06 Cloudy with Light Snow 34 1 32 0 93 93 WNW 8 13 30.24 1024 2 2 0.01 0.25
1:13 pm 13:13 Cloudy with Light Snow 34 1 32 0 93 93 NW 9 15 30.24 1024 3 4 0.00 0.00
1:18 pm 13:18 Cloudy with Light Snow 34 1 34 1 100 100 WNW 10 17 30.24 1024 4 6 0.01 0.25
1:30 pm 13:30 Cloudy with Light Rain 34 1 34 1 100 100 WNW 13 20 30.24 1024 6 10 0.01 0.25
1:53 pm 13:53 Cloudy with Light Snow 36 2 34 1 93 93 NW 12 19 30.23 1024 6 10 0.01 0.25
1:56 pm 13:56 Cloudy with Light Rain 35 1.7 34 1.1 96 96 NW 12 19 30.21 1023 7 11 0.01 0.25
2:39 pm 14:39 Cloudy 37 3 36 2 93 93 NW 13 20 30.22 1024 10 16 0.00 0.00
2:56 pm 14:56 Cloudy 37 2.8 35 1.7 93 93 NNW 14 22 30.22 1023 10 16 0.00 0.00
3:07 pm 15:07 Cloudy 37 3 34 1 87 87 NNW 13 20 30.23 1024 10 16 0.00 0.00
3:56 pm 15:56 Cloudy 39 3.9 32 0 76 76 NW 13 20 30.23 1024 10 16 0.00 0.00
4:56 pm 16:56 Mostly Cloudy 40 4.4 30 -1.1 68 68 NW 13 20 30.23 1024 10 16 0.00 0.00
5:56 pm 17:56 Sunny 38 3.3 28 -2.2 68 68 WNW 9 15 30.23 1024 10 16 0.00 0.00
6:56 pm 18:56 Clear 35 1.7 27 -2.8 72 72 W 7 11 30.25 1024 10 16 0.00 0.00
7:56 pm 19:56 Clear 35 1.7 27 -2.8 72 72 W 10 17 30.24 1024 10 16 0.00 0.00
8:56 pm 20:56 Clear 34 1.1 27 -2.8 76 76 W 9 15 30.23 1024 10 16 0.00 0.00
9:56 pm 21:56 Clear 34 1.1 27 -2.8 76 76 W 9 15 30.23 1024 10 16 0.00 0.00
10:56 pm 22:56 Clear 33 0.6 27 -2.8 78 78 WSW 9 15 30.22 1023 10 16 0.00 0.00
11:56 pm 23:56 Clear 32 0 27 -2.8 82 82 WSW 10 17 30.22 1023 10 16 0.00 0.00

Powered by AerisWeather